TimeEDT,TemperatureF,Dew PointF,Humidity,Sea Level PressureIn,VisibilityMPH,Wind Direction,Wind SpeedMPH,Gust SpeedMPH,PrecipitationIn,Events,Conditions,WindDirDegrees,DateUTC
12:53 AM,48.0,42.1,80,30.15,10.0,Calm,Calm,-,N/A,,Clear,0,2013-05-14 04:53:00
1:53 AM,48.9,42.1,77,30.16,10.0,NNE,4.6,-,N/A,,Partly Cloudy,30,2013-05-14 05:53:00
2:53 AM,48.9,39.0,69,30.17,10.0,NE,6.9,-,N/A,,Clear,40,2013-05-14 06:53:00
3:53 AM,48.0,39.0,71,30.18,10.0,NNE,5.8,-,N/A,,Clear,30,2013-05-14 07:53:00
4:53 AM,46.0,39.0,76,30.19,10.0,NE,5.8,-,N/A,,Clear,40,2013-05-14 08:53:00
5:53 AM,46.0,37.9,73,30.20,10.0,Calm,Calm,-,N/A,,Clear,0,2013-05-14 09:53:00
6:53 AM,48.0,39.9,74,30.22,10.0,Calm,Calm,-,N/A,,Clear,0,2013-05-14 10:53:00
7:53 AM,53.1,41.0,64,30.24,10.0,Calm,Calm,-,N/A,,Clear,0,2013-05-14 11:53:00
8:53 AM,59.0,36.0,42,30.25,10.0,NNE,9.2,-,N/A,,Clear,20,2013-05-14 12:53:00
9:53 AM,63.0,35.1,35,30.23,10.0,NNE,11.5,-,N/A,,Clear,30,2013-05-14 13:53:00
10:53 AM,64.9,34.0,32,30.25,10.0,NNE,4.6,-,N/A,,Clear,30,2013-05-14 14:53:00
11:53 AM,66.9,34.0,30,30.25,10.0,Calm,Calm,-,N/A,,Clear,0,2013-05-14 15:53:00
12:53 PM,68.0,34.0,28,30.25,10.0,Variable,5.8,17.3,N/A,,Clear,0,2013-05-14 16:53:00
1:39 PM,69.8,35.6,28,30.22,10.0,NW,8.1,-,N/A,,Clear,310,2013-05-14 17:39:00
1:53 PM,69.1,35.1,29,30.21,10.0,Calm,Calm,-,N/A,,Clear,0,2013-05-14 17:53:00
2:53 PM,71.1,36.0,28,30.19,10.0,West,10.4,-,N/A,,Clear,280,2013-05-14 18:53:00
3:53 PM,69.1,43.0,39,30.18,10.0,SSW,13.8,-,N/A,,Clear,200,2013-05-14 19:53:00
4:53 PM,68.0,43.0,40,30.17,10.0,South,9.2,20.7,N/A,,Clear,190,2013-05-14 20:53:00
5:53 PM,68.0,43.0,40,30.17,10.0,SSE,9.2,-,N/A,,Clear,160,2013-05-14 21:53:00
6:53 PM,66.0,42.1,42,30.16,10.0,South,11.5,-,N/A,,Clear,170,2013-05-14 22:53:00
7:53 PM,64.0,42.1,45,30.17,10.0,SSW,8.1,-,N/A,,Clear,200,2013-05-14 23:53:00
8:53 PM,62.1,43.0,50,30.16,10.0,South,5.8,-,N/A,,Clear,190,2013-05-15 00:53:00
9:53 PM,60.1,44.1,55,30.17,10.0,South,6.9,-,N/A,,Clear,190,2013-05-15 01:53:00
10:53 PM,59.0,45.0,60,30.16,10.0,SSW,5.8,-,N/A,,Clear,200,2013-05-15 02:53:00
11:53 PM,59.0,46.9,64,30.16,10.0,South,6.9,-,N/A,,Clear,190,2013-05-15 03:53:00